Location: Unspecified
(0.0000°N, 0.0000°E)
Time: 06:32:02
(UTC+00:00)

Vanguard 2 - Pass Details

Date: 22 November 2019
Orbit: 553 x 2938 km, 32.9° (Epoch: 10 December)

Event Time Altitude Azimuth Distance (km) Brightness Sun altitude
Rises 13:44:27 0° 336° (NNW) 2,860 10.4 54.7°
Reaches altitude 10° 13:48:30 10° 15° (NNE) 1,821 9.3 53.9°
Maximum altitude 13:49:38 11° 32° (NNE) 1,749 9.2 53.7°
Drops below altitude 10° 13:50:46 10° 49° (NE) 1,817 9.2 53.4°
Sets 13:54:46 0° 87° (E) 2,840 10.1 52.6°
